This demonstration page uses our WeatherBlox Daily Observations layout. Learn more.

38.89511, -77.03637

Hourly Observations for July 25, 2017

Temp ( °F °C ) Dew Point ( °F °C ) Humidity (%) Winds ( mph kmh ) Pressure ( in mb ) Visibility ( mi km ) Precip ( " mm )
12:52 am 00:52 Mostly Cloudy 79 26.1 69 20.6 72 72 NNW 13 20 29.91 1013 10 16.09344 0 0
1:52 am 01:52 Cloudy 79 26.1 65 18.3 62 62 N 13 20 29.94 1014 10 16.09344 0 0
2:52 am 02:52 Cloudy 77 25 63 17.2 62 62 N 16 26 29.94 1014 10 16.09344 0.001 0.001
3:52 am 03:52 Cloudy 75 23.9 61 16.1 62 62 NNW 10 17 29.97 1015 10 16.09344 0 0
4:52 am 04:52 Mostly Cloudy 73 22.8 60 15.6 64 64 N 13 20 30 1016 10 16.09344 0 0
5:52 am 05:52 Mostly Cloudy 72 22.2 58 14.4 61 61 NW 10 17 30 1016 10 16.09344 0 0
6:52 am 06:52 Mostly Cloudy 71 21.7 57 13.9 61 61 NW 9 15 30.03 1017 10 16.09344 0 0
7:52 am 07:52 Mostly Cloudy 72 22.2 58 14.4 61 61 NNW 9 15 30.03 1017 10 16.09344 0 0
8:52 am 08:52 Partly Cloudy 74 23.3 59 15 60 60 NNW 15 24 30.06 1018 10 16.09344 0 0
9:52 am 09:52 Partly Cloudy 76 24.4 60 15.6 58 58 NW 14 22 30.06 1018 10 16.09344 0 0
10:52 am 10:52 Partly Cloudy 78 25.6 61 16.1 56 56 NNW 12 19 30.06 1018 10 16.09344 0 0
11:52 am 11:52 Mostly Cloudy 78 25.6 61 16.1 56 56 N 12 19 30.09 1019 10 16.09344 0 0
12:52 pm 12:52 Cloudy 79 26.1 62 16.7 56 56 NNW 10 17 30.09 1019 10 16.09344 0 0
1:52 pm 13:52 Mostly Cloudy 81 27.2 62 16.7 53 53 N 8 13 30.09 1019 10 16.09344 0 0
2:52 pm 14:52 Mostly Cloudy 79 26.1 62 16.7 56 56 NNW 10 17 30.09 1019 10 16.09344 0 0
3:52 pm 15:52 Mostly Cloudy 80 26.7 63 17.2 56 56 NNW 15 24 30.12 1020 10 16.09344 0 0
4:52 pm 16:52 Mostly Cloudy 82 27.8 63 17.2 53 53 NW 10 17 30.09 1019 10 16.09344 0 0
5:52 pm 17:52 Mostly Cloudy 80 26.7 62 16.7 54 54 NNW 13 20 30.12 1020 10 16.09344 0 0
6:52 pm 18:52 Partly Cloudy 80 26.7 61 16.1 52 52 NW 10 17 30.12 1020 10 16.09344 0 0
7:52 pm 19:52 Mostly Cloudy 78 25.6 61 16.1 56 56 N 12 19 30.15 1021 10 16.09344 0 0
8:52 pm 20:52 Mostly Cloudy 77 25 63 17.2 62 62 N 9 15 30.15 1021 10 16.09344 0 0
9:52 pm 21:52 Partly Cloudy 75 23.9 62 16.7 64 64 N 12 19 30.15 1021 10 16.09344 0 0
10:52 pm 22:52 Mostly Clear 75 23.9 63 17.2 66 66 NNE 9 15 30.18 1022 10 16.09344 0 0
11:52 pm 23:52 Mostly Clear 74 23.3 63 17.2 69 69 NNE 8 13 30.18 1022 10 16.09344 0 0

Powered by AerisWeather